TimeEDT,TemperatureF,Dew PointF,Humidity,Sea Level PressureIn,VisibilityMPH,Wind Direction,Wind SpeedMPH,Gust SpeedMPH,PrecipitationIn,Events,Conditions,WindDirDegrees,DateUTC
12:15 AM,72.5,72.5,100,30.16,10.0,Calm,Calm,-,N/A,,Mostly Cloudy,0,2013-08-20 04:15:00
12:35 AM,72.5,72.5,100,30.16,10.0,Calm,Calm,-,N/A,,Overcast,0,2013-08-20 04:35:00
12:55 AM,72.7,72.7,100,30.16,10.0,Calm,Calm,-,N/A,,Overcast,0,2013-08-20 04:55:00
1:15 AM,72.5,72.5,100,30.16,10.0,Calm,Calm,-,N/A,,Overcast,0,2013-08-20 05:15:00
1:35 AM,72.5,72.5,100,30.16,10.0,Calm,Calm,-,N/A,,Overcast,0,2013-08-20 05:35:00
1:55 AM,72.7,72.7,100,30.16,10.0,Calm,Calm,-,N/A,,Overcast,0,2013-08-20 05:55:00
2:15 AM,72.5,72.5,100,30.16,10.0,Calm,Calm,-,N/A,,Overcast,0,2013-08-20 06:15:00
2:35 AM,72.1,72.1,100,30.16,10.0,Calm,Calm,-,N/A,,Overcast,0,2013-08-20 06:35:00
2:55 AM,72.0,72.0,100,30.15,10.0,Calm,Calm,-,N/A,,Mostly Cloudy,0,2013-08-20 06:55:00
3:15 AM,71.6,71.6,100,30.15,7.0,Calm,Calm,-,N/A,,Scattered Clouds,0,2013-08-20 07:15:00
3:35 AM,70.9,70.9,100,30.14,1.5,Calm,Calm,-,N/A,,Scattered Clouds,0,2013-08-20 07:35:00
3:55 AM,71.2,71.2,100,30.15,7.0,Calm,Calm,-,N/A,,Mostly Cloudy,0,2013-08-20 07:55:00
4:15 AM,71.6,71.6,100,30.14,7.0,Calm,Calm,-,N/A,,Overcast,0,2013-08-20 08:15:00
4:35 AM,71.8,71.8,100,30.14,7.0,Calm,Calm,-,N/A,,Overcast,0,2013-08-20 08:35:00
4:55 AM,71.6,71.6,100,30.14,5.0,Calm,Calm,-,N/A,,Scattered Clouds,0,2013-08-20 08:55:00
5:15 AM,71.6,71.6,100,30.14,7.0,Calm,Calm,-,N/A,,Clear,0,2013-08-20 09:15:00
5:35 AM,71.6,71.6,100,30.14,5.0,Calm,Calm,-,N/A,,Mostly Cloudy,0,2013-08-20 09:35:00
5:55 AM,71.4,71.4,100,30.14,5.0,Calm,Calm,-,N/A,,Overcast,0,2013-08-20 09:55:00
6:15 AM,71.6,71.6,100,30.15,5.0,Calm,Calm,-,N/A,,Overcast,0,2013-08-20 10:15:00
6:35 AM,71.6,71.6,100,30.16,5.0,Calm,Calm,-,N/A,,Overcast,0,2013-08-20 10:35:00
6:55 AM,71.6,71.6,100,30.16,7.0,Calm,Calm,-,N/A,,Overcast,0,2013-08-20 10:55:00
7:15 AM,71.6,71.6,100,30.17,7.0,Calm,Calm,-,N/A,,Overcast,0,2013-08-20 11:15:00
7:35 AM,71.6,71.6,100,30.17,5.0,Calm,Calm,-,N/A,,Overcast,0,2013-08-20 11:35:00
7:55 AM,71.8,71.8,100,30.17,7.0,Calm,Calm,-,N/A,,Overcast,0,2013-08-20 11:55:00
8:15 AM,72.0,72.0,100,30.18,7.0,Calm,Calm,-,N/A,,Overcast,0,2013-08-20 12:15:00
8:35 AM,72.3,72.3,100,30.18,10.0,NE,3.5,-,N/A,,Overcast,40,2013-08-20 12:35:00
8:55 AM,72.5,72.5,100,30.19,7.0,ENE,3.5,-,N/A,,Overcast,60,2013-08-20 12:55:00
9:15 AM,72.5,72.5,100,30.19,7.0,NE,3.5,-,N/A,,Overcast,50,2013-08-20 13:15:00
9:35 AM,72.7,72.7,100,30.20,7.0,East,3.5,-,N/A,,Overcast,80,2013-08-20 13:35:00
9:55 AM,73.4,73.4,100,30.20,7.0,ENE,4.6,-,N/A,,Overcast,60,2013-08-20 13:55:00
10:15 AM,73.9,73.6,99,30.21,7.0,ENE,4.6,-,N/A,,Overcast,70,2013-08-20 14:15:00
10:35 AM,74.3,73.6,98,30.21,5.0,Calm,Calm,-,N/A,,Overcast,0,2013-08-20 14:35:00
10:55 AM,74.3,73.9,99,30.22,5.0,ENE,3.5,-,N/A,,Overcast,70,2013-08-20 14:55:00
11:15 AM,74.5,74.3,99,30.22,7.0,East,3.5,-,N/A,,Overcast,90,2013-08-20 15:15:00
11:35 AM,74.8,74.3,98,30.23,5.0,ENE,3.5,-,N/A,,Overcast,70,2013-08-20 15:35:00
11:55 AM,75.6,74.3,96,30.23,7.0,East,3.5,-,N/A,,Mostly Cloudy,80,2013-08-20 15:55:00
12:15 PM,76.1,74.5,95,30.23,10.0,East,4.6,-,N/A,,Overcast,80,2013-08-20 16:15:00
12:35 PM,76.1,74.5,95,30.23,10.0,East,5.8,-,N/A,,Overcast,80,2013-08-20 16:35:00
12:55 PM,76.1,74.3,94,30.23,10.0,Calm,Calm,-,N/A,,Overcast,0,2013-08-20 16:55:00
1:15 PM,77.0,74.3,91,30.23,10.0,East,3.5,-,N/A,,Mostly Cloudy,90,2013-08-20 17:15:00
1:35 PM,76.6,74.7,94,30.23,10.0,Calm,Calm,-,N/A,,Mostly Cloudy,0,2013-08-20 17:35:00
1:55 PM,76.5,75.2,96,30.21,10.0,NNE,5.8,-,N/A,,Overcast,20,2013-08-20 17:55:00
2:15 PM,77.2,75.2,94,30.21,10.0,North,3.5,-,N/A,,Overcast,10,2013-08-20 18:15:00
2:35 PM,77.0,75.0,94,30.20,10.0,NE,3.5,-,N/A,,Overcast,50,2013-08-20 18:35:00
2:55 PM,77.5,75.2,92,30.19,10.0,North,4.6,-,N/A,,Overcast,10,2013-08-20 18:55:00
3:15 PM,78.8,75.0,88,30.19,10.0,NE,3.5,-,N/A,,Mostly Cloudy,40,2013-08-20 19:15:00
3:35 PM,79.0,75.4,89,30.18,10.0,NE,3.5,-,N/A,,Overcast,50,2013-08-20 19:35:00
3:55 PM,79.7,75.6,87,30.17,10.0,Calm,Calm,-,N/A,,Scattered Clouds,0,2013-08-20 19:55:00
4:15 PM,80.1,75.2,85,30.17,10.0,ENE,3.5,-,N/A,,Scattered Clouds,60,2013-08-20 20:15:00
4:35 PM,79.7,74.7,84,30.17,10.0,NE,3.5,-,N/A,,Mostly Cloudy,40,2013-08-20 20:35:00
4:55 PM,80.8,75.0,83,30.16,10.0,NNE,3.5,-,N/A,,Mostly Cloudy,20,2013-08-20 20:55:00
5:15 PM,80.4,75.0,84,30.16,10.0,NNE,3.5,-,N/A,,Scattered Clouds,20,2013-08-20 21:15:00
5:35 PM,81.9,75.4,81,30.16,10.0,NE,4.6,-,N/A,,Scattered Clouds,40,2013-08-20 21:35:00
5:55 PM,81.0,75.2,83,30.16,10.0,North,-9999.0,-,N/A,,Scattered Clouds,0,2013-08-20 21:55:00
6:15 PM,79.7,75.4,87,30.17,10.0,NE,3.5,-,N/A,,Scattered Clouds,40,2013-08-20 22:15:00
6:35 PM,79.7,75.7,88,30.17,10.0,Calm,Calm,-,N/A,,Clear,0,2013-08-20 22:35:00
6:55 PM,78.8,76.1,91,30.17,10.0,NE,3.5,-,N/A,,Scattered Clouds,50,2013-08-20 22:55:00
7:15 PM,77.7,76.3,95,30.17,10.0,ENE,3.5,-,N/A,,Scattered Clouds,60,2013-08-20 23:15:00
7:35 PM,77.4,75.7,95,30.17,10.0,Calm,Calm,-,N/A,,Clear,0,2013-08-20 23:35:00
7:55 PM,75.7,75.7,100,30.18,10.0,Calm,Calm,-,N/A,,Clear,0,2013-08-20 23:55:00
8:15 PM,75.2,75.2,100,30.18,10.0,Calm,Calm,-,N/A,,Clear,0,2013-08-21 00:15:00
8:35 PM,75.0,75.0,100,30.19,10.0,Calm,Calm,-,N/A,,Clear,0,2013-08-21 00:35:00
8:55 PM,75.2,75.2,100,30.19,10.0,ENE,3.5,-,N/A,,Clear,70,2013-08-21 00:55:00
9:15 PM,75.4,75.2,99,30.19,10.0,Calm,Calm,-,N/A,,Clear,0,2013-08-21 01:15:00
9:35 PM,75.2,75.0,99,30.20,10.0,East,3.5,-,N/A,,Clear,80,2013-08-21 01:35:00
9:55 PM,74.7,74.7,100,30.21,10.0,Calm,Calm,-,N/A,,Scattered Clouds,0,2013-08-21 01:55:00
10:15 PM,73.8,73.8,100,30.21,10.0,Calm,Calm,-,N/A,,Clear,0,2013-08-21 02:15:00
10:35 PM,73.4,73.4,100,30.22,10.0,Calm,Calm,-,N/A,,Clear,0,2013-08-21 02:35:00
10:55 PM,73.0,73.0,100,30.23,10.0,Calm,Calm,-,N/A,,Clear,0,2013-08-21 02:55:00
11:15 PM,72.5,72.5,100,30.23,7.0,Calm,Calm,-,N/A,,Clear,0,2013-08-21 03:15:00
11:35 PM,72.1,72.1,100,30.23,10.0,Calm,Calm,-,N/A,,Scattered Clouds,0,2013-08-21 03:35:00
11:55 PM,72.3,72.3,100,30.23,10.0,Calm,Calm,-,N/A,,Scattered Clouds,0,2013-08-21 03:55:00